Location: *
(55.7505°N, 37.5763°E)
Time: 10:18:03
(UTC+00:00)

Daily predictions for brighter satellites

Satellite Brightness Start Highest point End
(mag) Time Altitude Azimuth Time Altitude Azimuth Time Altitude Azimuth
CZ-2C R/B 3.0 16:29:09 10° SSE 16:34:07 65° ENE 16:38:53 10° N
STARLINK-1114 4.0 16:30:39 10° W 16:34:43 56° S 16:38:47 10° ESE
Resurs 1-3 4.4 16:31:51 10° SE 16:35:47 33° ENE 16:39:44 10° N
Cosmos 1048 Rocket 4.0 16:32:16 10° SSW 16:37:20 62° ESE 16:42:29 10° NNE
Meteor 1-22 Rocket 4.3 16:32:26 10° SSE 16:37:28 47° E 16:42:32 10° NNE
SJ-6B 3.1 16:34:20 10° SSE 16:38:20 55° ENE 16:42:24 10° N
Cosmos 1709 Rocket 4.1 16:32:12 10° N 16:38:26 63° ENE 16:44:33 10° SSE
CZ-4C R/B 2.9 16:33:13 10° WSW 16:38:42 62° NNW 16:45:22 10° NE
ISS -3.0 16:35:34 10° WSW 16:38:45 41° S 16:41:57 10° ESE
USA 81 4.1 16:34:20 10° N 16:39:39 87° E 16:44:56 10° S
STARLINK-1130 (DARKSAT) 4.0 16:35:36 10° W 16:39:40 55° S 16:43:44 10° ESE
Resurs 01 Rocket 2.6 16:39:02 10° ESE 16:42:52 30° ENE 16:46:42 10° N
NOSS 3-4 (A) 4.3 16:37:04 10° WNW 16:43:23 49° NNE 16:50:21 10° E
NOSS 3-4 (C) 4.3 16:37:10 10° WNW 16:43:29 49° NNE 16:50:28 10° E
Cosmos 494 Rocket 4.3 16:39:04 10° S 16:43:58 46° ESE 16:48:55 10° NE
STARLINK-1084 4.1 16:40:35 10° W 16:44:38 53° S 16:48:40 10° ESE
Cosmos 1331 Rocket 4.4 16:39:30 10° NNW 16:44:40 67° WSW 16:49:46 10° SSE
SPOT 3 Rocket 3.8 16:42:13 10° SE 16:47:18 55° ENE 16:52:25 10° N
Cosmos 2219 Rocket 2.8 16:43:35 10° SW 16:49:12 63° NW 16:54:50 10° NNE
STARLINK-1098 4.1 16:45:32 10° W 16:49:35 52° SSW 16:53:37 10° ESE
STARLINK-1187 4.4 16:47:17 10° SSW 16:49:41 20° SSE 16:52:00 11° ESE
Cosmos 1733 3.2 16:46:13 10° S 16:49:55 55° E 16:53:38 10° NNE
STARLINK-1235 4.3 16:47:50 10° SSW 16:50:20 22° SSE 16:52:45 11° E
Cosmos 1674 4.0 16:47:31 10° NNW 16:51:09 44° W 16:54:43 10° SSW
STARLINK-1199 4.5 16:49:22 10° SSW 16:51:43 19° SSE 16:53:52 11° ESE
STARLINK-1191 4.5 16:49:49 10° SSW 16:52:10 19° SSE 16:54:18 11° ESE
SL-14 R/B 3.3 16:48:19 10° N 16:52:25 80° E 16:56:27 10° SSE
COSMO-SKYMED 1 4.5 16:48:27 10° N 16:52:26 36° WNW 16:56:24 10° SW
STARLINK-1210 4.5 16:50:15 10° SSW 16:52:36 20° SSE 16:54:44 11° ESE
STARLINK-1221 4.5 16:50:42 10° SSW 16:53:05 20° SSE 16:55:12 11° ESE
STARLINK-1219 4.5 16:51:09 10° SSW 16:53:31 20° SSE 16:55:37 11° ESE
STARLINK-1222 4.5 16:51:35 10° SSW 16:53:57 20° SSE 16:56:02 12° ESE
Cosmos 1943 Rocket 2.3 16:48:28 10° NNW 16:53:58 61° NE 16:59:28 10° SE
STARLINK-1211 4.4 16:52:01 10° SSW 16:54:24 20° SSE 16:56:28 12° ESE
STARLINK-1123 4.1 16:50:32 10° W 16:54:34 51° SSW 16:58:25 11° ESE
STARLINK-1214 4.4 16:52:28 10° SSW 16:54:51 20° SSE 16:56:55 12° ESE
STARLINK-1245 4.4 16:52:57 10° SSW 16:55:19 20° SSE 16:57:20 12° ESE
STARLINK-67 3.8 16:53:20 10° SSW 16:55:28 22° SSE 16:57:09 13° ESE
FREGAT/IRIS 2.5 16:52:52 10° S 16:55:35 74° WSW 16:58:20 10° NNW
STARLINK-1238 4.4 16:53:22 10° SSW 16:55:46 20° SSE 16:57:47 12° ESE
STARLINK-1205 4.4 16:54:17 10° SSW 16:56:41 20° SSE 16:58:38 12° ESE
STARLINK-1204 4.4 16:54:42 10° SSW 16:57:06 20° SSE 16:59:02 12° ESE
Cosmos 292 Rocket 4.2 16:52:45 10° NNW 16:57:24 48° NE 17:02:04 10° SE
S3M 4.1 16:51:34 10° S 16:57:58 86° E 17:04:25 10° NNE
Cosmos 1980 3.7 16:52:53 10° SSW 16:58:35 80° ESE 17:04:18 10° NE
Cosmos 1726 4.0 16:57:37 11° ESE 16:59:07 14° E 17:01:03 10° NE
STARLINK-1097 4.1 16:55:29 10° W 16:59:31 50° SSW 17:03:11 12° ESE
Ariane Rocket 3.6 16:58:42 10° S 17:03:43 60° WSW 17:08:45 10° NNW
NOSS 2-2 (D) 4.4 16:58:38 10° NW 17:03:44 85° NE 17:10:33 11° SE
STARLINK-1099 4.2 17:00:29 10° W 17:04:28 48° SSW 17:07:59 13° ESE
Cosmos 1766 3.5 17:01:15 10° SSW 17:05:14 78° WNW 17:09:16 10° N
Cosmos 2084 3.5 17:03:32 10° SW 17:08:03 86° SE 17:12:33 10° NE
STARLINK-1104 4.2 17:05:28 10° W 17:09:27 47° SSW 17:12:46 14° SE
Cosmos 1455 Rocket 3.0 17:06:07 10° S 17:10:27 84° E 17:14:52 10° NNE
SL-16 R/B 2.5 17:06:46 10° S 17:12:05 44° ESE 17:17:26 10° NE
Cosmos 2333 Rocket 3.3 17:06:57 10° WSW 17:12:26 47° NW 17:17:56 10° NNE
NOSS 2-1 (E) 3.1 17:09:04 10° SW 17:12:32 84° SE 17:16:41 10° NE
SL-16 R/B 4.5 17:08:51 10° WNW 17:13:10 22° NNW 17:17:30 10° NNE
Cosmos 1626 Rocket 3.5 17:09:12 10° NNW 17:13:40 86° E 17:18:03 10° SSE
STARLINK-1144 4.2 17:10:25 10° W 17:14:23 45° SSW 17:17:32 15° SE
ATLAS 2AS CENTAUR R/B 3.3 17:08:33 10° WNW 17:16:22 60° NNE 17:22:49 14° ESE
Spot 2 Rocket 4.2 17:12:45 13° ESE 17:16:48 37° ENE 17:21:29 10° N
BREEZE-M DEB (TANK) 3.9 17:15:43 10° SSW 17:18:07 14° SSE 17:19:00 13° SSE
Cosmos 2084 Rocket 3.6 17:14:06 10° NW 17:18:35 81° SW 17:22:14 15° SE
Cosmos 1626 2.8 17:15:31 10° NNW 17:19:11 57° W 17:22:48 10° S
STARLINK-1103 4.3 17:15:23 10° W 17:19:20 44° SSW 17:22:19 16° SE
Cosmos 1602 Rocket 3.5 17:16:40 10° N 17:21:11 82° E 17:25:38 10° SSE
Aureole 3 4.2 17:17:37 10° SSE 17:21:35 41° E 17:26:34 10° NNE
Cosmos 1953 3.1 17:18:21 10° SSE 17:21:50 30° E 17:25:21 10° NNE
DMSP B5D2-2 4.4 17:17:44 10° NNE 17:22:40 41° E 17:27:36 10° SSE
Cosmos 1437 3.5 17:20:05 10° N 17:22:51 30° ENE 17:24:09 21° ESE
STARLINK-1101 4.3 17:20:23 10° W 17:24:19 42° SSW 17:27:07 17° SE
USA 186 3.4 17:21:12 10° SSW 17:24:27 39° W 17:27:38 10° NNW
USA 234 3.7 17:19:37 10° ENE 17:25:41 39° SE 17:31:44 10° SSW
STARLINK-1234 3.7 17:23:09 10° SW 17:25:50 30° SSE 17:26:52 23° ESE
H-2A R/B 3.0 17:22:36 10° S 17:27:44 49° W 17:32:45 10° NNW
STARLINK-1102 4.4 17:25:21 10° W 17:29:16 41° SSW 17:31:53 18° SE
Cosmos 2360 Rocket 4.4 17:24:47 10° W 17:29:25 25° NNW 17:34:03 10° NNE
ADEOS Rocket 4.3 17:24:07 10° NNE 17:30:54 49° WNW 17:37:00 10° SW
Terra 3.4 17:31:51 15° E 17:34:08 20° NE 17:37:32 10° N
STARLINK-1111 4.4 17:30:20 10° W 17:34:13 39° SSW 17:36:40 20° SE
NOSS 0 Rocket 4.4 17:28:03 10° SW 17:34:14 66° NW 17:40:25 10° NE
CZ-2C R/B 3.8 17:30:15 10° NNE 17:35:02 65° ESE 17:39:44 10° S
Aureole 2 Rocket 2.3 17:32:39 10° NNW 17:36:10 78° ENE 17:38:18 22° SE
STARLINK-1269 4.4 17:33:56 10° SW 17:37:31 31° SSE 17:39:02 24° ESE
Cosmos 1544 Rocket 3.8 17:33:31 10° SSW 17:37:55 73° WNW 17:42:23 10° N
Cosmos 1980 Rocket 4.5 17:35:10 10° NW 17:38:47 17° N 17:42:24 10° NE
STARLINK-1073 4.5 17:35:19 10° W 17:39:10 38° SSW 17:41:27 21° SSE
COSMOS 2455 3.7 17:34:47 10° NW 17:40:26 39° NNE 17:44:52 16° E
Cosmos 1703 3.8 17:36:49 10° N 17:40:35 40° ENE 17:42:24 25° SE
Cosmos 1825 Rocket 3.7 17:36:11 10° N 17:40:36 57° ENE 17:43:32 20° SSE
Cosmos 2184 Rocket 4.0 17:35:07 10° N 17:41:31 71° ENE 17:47:25 12° SSE
ERBS 2.2 17:38:25 10° WSW 17:41:48 83° SSE 17:43:59 20° ENE
STARLINK-1200 4.3 17:38:33 10° SW 17:42:11 32° SSE 17:43:33 25° ESE
Cosmos 2237 Rocket 2.7 17:36:47 10° SW 17:42:22 63° NW 17:48:01 10° NNE
MetOp-B 4.2 17:38:32 16° SE 17:42:43 62° ENE 17:48:01 10° NNW
CZ-2C R/B 2.7 17:38:42 10° NNE 17:43:47 51° E 17:48:49 10° S
Cosmos 1992 Rocket 4.0 17:41:06 10° NNW 17:46:22 86° WSW 17:50:23 17° SSE
Cosmos 2344 4.5 17:38:53 10° W 17:46:33 54° N 17:56:20 10° ENE
STARLINK-1192 4.3 17:43:07 10° SW 17:46:47 34° SSE 17:48:00 28° ESE
Cosmos 1758 Rocket 3.5 17:45:27 10° N 17:49:52 78° ENE 17:52:57 19° SSE
SeaSat 1 4.3 17:46:22 10° NNE 17:50:46 33° NW 17:55:09 10° W
Cosmos 1269 Rocket 4.1 17:45:40 10° SSW 17:50:59 84° WNW 17:56:20 10° NNE
STARLINK-1244 4.2 17:47:51 10° SW 17:51:33 35° SSE 17:52:36 30° ESE
STARLINK-1201 3.6 17:51:37 10° SW 17:54:40 37° SSE 17:54:56 36° SSE
SL-24 R/B 4.2 17:50:21 10° NNE 17:55:19 89° ESE 17:59:36 10° SSW
Cosmos 1953 Rocket 3.7 17:51:46 10° N 17:56:09 56° ENE 17:58:20 28° SE
STARLINK-1138 4.1 17:52:28 10° SW 17:56:13 36° SSE 17:57:07 32° SE
Cosmos 1656 Rocket 3.8 17:50:52 10° NNW 17:56:34 67° NE 17:59:51 26° SE
Cosmos 2251 Rocket 3.9 17:52:46 10° S 17:57:47 43° ESE 18:02:52 10° NE
Cosmos 1461 4.0 17:55:53 10° NW 18:00:02 40° NNE 18:02:23 23° E
STARLINK-1143 4.1 17:57:12 10° SW 18:00:58 38° SSE 18:01:42 34° SE
STARLINK-1209 3.4 17:58:33 10° WSW 18:01:00 37° S 18:01:00 37° S
STARLINK-1228 3.4 17:59:23 10° WSW 18:01:47 37° S 18:01:47 37° S
Cosmos 2154 Rocket 4.0 17:56:01 10° N 18:02:23 68° ENE 18:06:43 21° SSE
Cosmos 2315 Rocket 4.4 17:57:10 10° SSW 18:03:28 70° WNW 18:09:52 10° N
Cosmos 1606 Rocket 3.8 18:06:12 30° SSE 18:07:56 47° E 18:12:13 10° NNE
Cosmos 1470 3.5 18:04:46 10° SSW 18:08:34 53° WNW 18:12:25 10° N
NOSS 2-1 (C) 4.3 18:07:21 10° W 18:10:47 44° NNW 18:14:57 10° NE
ERS-1 Rocket 3.3 18:08:48 30° ESE 18:10:56 50° ENE 18:15:48 10° N
STARLINK-1241 3.9 18:07:41 10° SW 18:11:29 41° SSE 18:11:48 40° SSE
Cosmos 2369 Rocket 2.6 18:06:35 10° NW 18:12:13 61° WSW 18:16:02 21° S
ATLAS CENTAUR R/B 3.5 18:09:29 10° WNW 18:13:00 24° N 18:16:21 10° NE
STARLINK-1233 3.7 18:11:46 10° WSW 18:14:11 37° SSW 18:14:11 37° SSW
NOSS 2-1 (D) 4.4 18:11:35 10° W 18:15:01 43° NNW 18:19:12 10° NE
ISS -2.3 18:12:17 10° W 18:15:07 25° SSW 18:15:13 25° SSW
STARLINK-1212 3.7 18:12:14 10° WSW 18:14:36 36° SSW 18:14:36 36° SSW
USA 245 4.1 18:12:26 26° SSE 18:15:24 83° ENE 18:21:26 10° NNW
STARLINK-1105 3.7 18:12:40 10° WSW 18:15:03 37° SSW 18:15:03 37° SSW
Cosmos 2263 4.3 18:10:12 10° NW 18:15:50 73° WSW 18:19:01 26° SSE
STARLINK-1239 3.9 18:12:14 10° SW 18:16:02 42° SSE 18:16:12 42° SSE
Cosmos 1758 4.2 18:12:07 10° SSW 18:16:07 51° WNW 18:20:08 10° N
STARLINK-1206 3.8 18:13:09 10° WSW 18:15:27 35° SSW 18:15:27 35° SSW
STARLINK-1247 3.8 18:13:36 10° WSW 18:15:53 35° SSW 18:15:53 35° SSW
STARLINK-1227 3.8 18:14:00 10° WSW 18:16:20 36° SSW 18:16:20 36° SSW
STARLINK-1218 3.8 18:14:29 10° WSW 18:16:45 35° SSW 18:16:45 35° SSW
STARLINK-1226 3.8 18:14:57 10° WSW 18:17:13 35° SSW 18:17:13 35° SSW
SPOT 5 3.1 18:16:52 36° ESE 18:18:02 44° ENE 18:22:11 10° N
STARLINK-1254 3.8 18:15:20 10° WSW 18:17:38 35° SSW 18:17:38 35° SSW
STARLINK-1215 3.8 18:15:50 10° WSW 18:18:04 34° SSW 18:18:04 34° SSW
Resurs 01 Rocket 2.5 18:15:31 13° S 18:19:12 47° W 18:23:30 10° NNW
STARLINK-1231 3.9 18:16:16 10° WSW 18:18:29 34° SSW 18:18:29 34° SSW
STARLINK-1232 3.9 18:17:11 10° WSW 18:19:21 34° SSW 18:19:21 34° SSW
STARLINK-1240 3.9 18:16:48 10° SW 18:20:37 43° SSE 18:20:38 43° SSE
STARLINK-1217 3.9 18:17:38 10° WSW 18:19:47 34° SSW 18:19:47 34° SSW
STARLINK-1208 3.9 18:18:02 10° WSW 18:20:15 34° SSW 18:20:15 34° SSW
STARLINK-1229 3.9 18:18:31 10° WSW 18:20:39 33° SSW 18:20:39 33° SSW
STARLINK-1271 3.9 18:18:59 10° WSW 18:21:06 33° SSW 18:21:06 33° SSW
STARLINK-1270 4.0 18:19:26 10° WSW 18:21:32 33° SSW 18:21:32 33° SSW
STARLINK-1154 4.0 18:19:52 10° WSW 18:21:57 33° SW 18:21:57 33° SW
STARLINK-1197 4.0 18:20:46 10° WSW 18:22:49 32° SW 18:22:49 32° SW
STARLINK-1189 4.0 18:21:13 10° WSW 18:23:15 32° SW 18:23:15 32° SW
SL-8 Rocket 4.4 18:18:47 10° N 18:24:51 47° ENE 18:27:18 32° ESE
STARLINK-1187 3.9 18:22:02 10° WSW 18:24:10 34° SW 18:24:10 34° SW
STARLINK-1188 4.1 18:22:07 10° WSW 18:24:07 31° SW 18:24:07 31° SW
STARLINK-1216 3.9 18:21:22 10° SW 18:25:04 45° S 18:25:04 45° S
STARLINK-1198 4.1 18:22:22 10° WSW 18:24:21 31° SW 18:24:21 31° SW
STARLINK-1235 3.9 18:22:41 10° WSW 18:24:55 36° SW 18:24:55 36° SW
Nadezhda 1 Rocket 4.0 18:21:45 18° S 18:26:40 67° E 18:33:00 10° NNE
STARLINK-1199 4.1 18:24:02 10° WSW 18:26:03 32° SW 18:26:03 32° SW
STARLINK-1191 4.1 18:24:30 10° WSW 18:26:29 31° SW 18:26:29 31° SW
Cosmos 1908 3.3 18:27:42 53° E 18:27:44 53° E 18:31:32 10° NNE
STARLINK-1210 4.1 18:24:56 10° WSW 18:26:54 31° SW 18:26:54 31° SW
CZ-4C R/B 3.6 18:22:33 10° WNW 18:28:17 43° N 18:35:07 10° ENE
STARLINK-1221 4.1 18:25:24 10° WSW 18:27:22 31° SW 18:27:22 31° SW
STARLINK-1219 4.2 18:25:50 10° WSW 18:27:47 31° SW 18:27:47 31° SW
STARLINK-1222 4.2 18:26:16 10° WSW 18:28:12 30° SW 18:28:12 30° SW
Landsat 7 3.7 18:27:41 35° SSE 18:29:43 89° ENE 18:34:31 10° NNW
STARLINK-1211 4.2 18:26:44 10° WSW 18:28:38 30° SW 18:28:38 30° SW
STARLINK-1237 3.9 18:25:59 10° WSW 18:29:32 45° S 18:29:32 45° S
STARLINK-1214 4.2 18:27:11 10° WSW 18:29:05 30° SW 18:29:05 30° SW
STARLINK-1245 4.3 18:27:41 10° WSW 18:29:30 29° SW 18:29:30 29° SW
MOS 1 Rocket 3.8 18:25:52 10° NNE 18:30:58 73° WNW 18:36:18 10° SSW
STARLINK-1238 4.3 18:28:05 10° WSW 18:29:57 29° SW 18:29:57 29° SW
Cosmos 2366 rocket 4.5 18:26:05 10° N 18:31:56 43° ENE 18:33:55 33° ESE
Cosmos 921 Rocket 3.3 18:27:51 10° NNW 18:31:57 47° ENE 18:32:33 43° E
STARLINK-1205 4.3 18:29:02 10° WSW 18:30:49 28° SW 18:30:49 28° SW
STARLINK-1204 4.3 18:29:28 10° WSW 18:31:13 28° SW 18:31:13 28° SW
Cosmos 1726 2.2 18:32:03 30° SSW 18:33:48 75° WNW 18:37:34 10° N
Cosmos 2219 Rocket 4.5 18:29:43 10° W 18:34:16 24° NNW 18:38:48 10° NNE
STARLINK-1202 3.9 18:30:34 10° WSW 18:33:59 45° S 18:33:59 45° S
NOSS 3-4 (A) 3.7 18:28:10 10° NW 18:34:57 89° SW 18:38:31 34° SE
NOSS 3-4 (C) 3.7 18:28:16 10° NW 18:35:03 89° SW 18:38:37 34° SE
Cosmos 2228 2.8 18:34:16 42° S 18:35:40 77° E 18:40:00 10° NNE
SAR-Lupe-2 3.5 18:33:26 10° NNE 18:37:02 81° WNW 18:38:01 46° SSW
Cosmos 1943 Rocket 3.5 18:32:33 10° NW 18:37:29 34° WSW 18:41:19 15° SSW
STARLINK-1246 4.0 18:35:30 10° WSW 18:38:50 45° SSW 18:38:50 45° SSW
Cosmos 1943 3.4 18:37:49 36° SSE 18:39:34 48° ESE 18:45:02 10° NE
Cosmos 1340 Rocket 3.5 18:46:37 40° ENE 18:46:37 40° ENE 18:49:44 10° NNE
Cosmos 2058 3.8 18:42:28 10° N 18:46:01 34° ENE 18:46:01 34° ENE
Cosmos 2058 Rocket 3.1 18:46:55 58° ESE 18:47:15 60° E 18:51:43 10° NNE
NOSS 3-3 (A) 4.1 18:42:19 10° SSW 18:48:04 51° SE 18:54:37 10° NE
NOSS 3-3 (C) 4.1 18:42:25 10° SSW 18:48:11 51° SE 18:54:43 10° NE
STARLINK-1224 4.2 18:44:26 10° WSW 18:47:24 41° SSW 18:47:24 41° SSW
STARLINK-1225 4.3 18:49:06 10° WSW 18:51:55 39° SW 18:51:55 39° SW
SPOT 1/Viking Rocket 3.7 18:51:28 37° S 18:53:34 70° WSW 18:58:48 10° NNW
Meteor 2-10 4.5 18:48:13 10° SSW 18:53:35 66° WNW 18:59:10 10° NNE
STARLINK-1203 4.4 18:51:05 10° WSW 18:53:42 36° SW 18:53:42 36° SW
Mayak 0.8 18:52:27 10° NE 18:53:46 16° NE 18:53:46 16° NE
Spot 2 Rocket 4.3 18:52:55 24° SSW 18:55:43 47° W 19:00:41 10° NNW
SL-16 R/B 3.1 18:50:42 10° WSW 18:56:12 50° NW 19:01:45 10° NNE
STARLINK-1230 4.5 18:53:43 10° WSW 18:56:23 36° SW 18:56:23 36° SW
Cosmos 1953 3.9 18:54:32 10° SW 18:58:11 34° WNW 19:01:52 10° N
Cosmos 1697 Rocket 4.2 18:55:05 10° NNW 18:59:58 28° NNE 19:02:36 20° ENE
Cosmos 2341 Rocket 4.0 19:00:01 10° NNW 19:06:23 81° W 19:08:56 39° S
IGS 5A 4.3 19:05:47 37° SW 19:06:45 44° W 19:10:46 10° NNW
ATLAS 2AS CENTAUR R/B 3.0 18:59:58 10° NW 19:07:39 67° SW 19:10:15 42° SSE
USA 234 3.1 19:02:45 10° ENE 19:09:19 79° SSE 19:15:53 10° WSW
Terra 1.7 19:10:44 70° SSE 19:11:18 90° WSW 19:16:07 10° NNW
Cosmos 1076 Rocket 3.7 19:07:54 10° N 19:11:45 56° NE 19:11:45 56° NE
CARTOSAT-1 3.8 19:13:45 58° SW 19:14:11 61° WSW 19:18:30 10° NNW
Cosmos 1140 Rocket 4.4 19:16:46 33° ENE 19:16:46 33° ENE 19:20:12 10° NE
Cosmos 1603 3.6 19:12:02 10° SW 19:17:37 86° NW 19:23:17 10° NE
ERBS 3.8 19:14:51 10° W 19:16:58 35° WNW 19:16:58 35° WNW
Cosmos 468 Rocket 4.4 19:13:36 10° NNW 19:18:42 49° NE 19:19:17 47° ENE
Cosmos 1726 Rocket 4.3 19:18:06 35° SW 19:19:37 52° WNW 19:23:58 10° N
Cosmos 407 Rocket 3.7 19:24:36 53° ENE 19:24:36 53° ENE 19:28:55 10° NNE
CZ-2C R/B 4.1 19:19:17 10° N 19:23:59 35° WNW 19:28:36 10° WSW
Cosmos 1980 Rocket 3.8 19:20:05 10° NNW 19:24:46 26° NNE 19:27:23 19° ENE
COSMOS 2455 2.7 19:20:53 10° NW 19:26:58 83° SW 19:28:01 63° SSE
Cosmos 2237 Rocket 4.5 19:23:00 10° W 19:27:33 24° NNW 19:32:07 10° NNE
Aureole 1 Rocket 4.1 19:24:44 35° S 19:28:11 73° ESE 19:34:28 10° NNE
Cosmos 2151 4.0 19:27:46 10° N 19:30:55 37° NE 19:30:55 37° NE
RESURS DK-1 3.9 19:28:29 10° NNW 19:32:07 28° NE 19:32:14 28° NE
Iridium 4 Rocket 3.1 19:27:43 10° N 19:32:05 76° NW 19:32:05 76° NW
Meteor 2-12 Rocket 4.3 19:28:31 10° N 19:34:42 82° ENE 19:35:41 64° SSE
Cosmos 2218 Rocket 3.9 19:29:02 10° NNW 19:35:13 79° W 19:36:38 56° S
Cosmos 1892 3.7 19:34:12 10° N 19:36:59 45° N 19:36:59 45° N
Cosmos 1461 3.5 19:34:58 10° NW 19:38:46 56° W 19:38:46 56° W
USA 32 4.0 19:36:25 10° N 19:41:40 71° ENE 19:41:40 71° ENE
Cosmos 614 Rocket 3.9 19:48:11 79° WSW 19:48:28 83° WNW 19:53:44 10° NNE
Cosmos 2181 Rocket 3.9 19:48:22 56° SSW 19:49:50 83° W 19:56:06 10° N
ERS-1 Rocket 4.2 19:48:48 29° WSW 19:49:57 33° W 19:54:29 10° NNW
In-Cosmos 22 Rocket 4.4 19:46:53 10° NNW 19:52:37 65° W 19:53:25 58° SW
ATLAS CENTAUR R/B 2.9 19:49:18 10° NW 19:52:57 30° NNE 19:53:05 30° NNE
SPOT 5 4.0 19:56:05 29° W 19:56:18 30° W 20:00:10 10° NNW
Meteor 2-3 Rocket 4.3 19:51:41 10° N 19:57:15 44° ENE 19:57:31 44° ENE
Meteor 2-10 Rocket 4.5 20:00:37 36° ENE 20:00:37 36° ENE 20:04:22 10° NNE
Cosmos 2344 4.3 19:54:01 10° WNW 20:02:32 69° NNE 20:10:06 24° ESE
Cosmos 1656 3.7 20:01:30 10° NNW 20:07:15 74° NE 20:07:22 74° ENE
Cosmos 1300 4.3 20:10:09 33° NW 20:10:09 33° NW 20:12:50 10° N
Cosmos 1814 Rocket 4.4 20:05:17 10° NNW 20:10:29 54° NE 20:10:29 54° NE
Cosmos 2369 4.0 20:06:19 10° NNW 20:11:54 54° NE 20:12:17 53° ENE
ATLAS 5 CENTAUR R/B 4.2 20:16:12 12° ENE 20:16:12 12° ENE 20:16:36 10° ENE
Cosmos 1825 3.9 20:09:18 10° N 20:11:25 31° N 20:11:25 31° N
CZ-4C R/B 3.2 20:11:34 10° NW 20:17:57 58° NNE 20:21:24 32° E
Okean 3 Rocket 4.4 20:16:29 10° NNW 20:19:42 48° NNW 20:19:42 48° NNW
Cosmos 1943 4.1 20:19:28 16° WSW 20:23:43 47° NW 20:29:14 10° NNE
ALOS 2 3.6 20:25:45 44° N 20:25:45 44° N 20:28:55 10° N
Cosmos 1570 Rocket 4.2 20:22:06 10° NNW 20:26:58 73° NNW 20:26:58 73° NNW
Cosmos 1763 Rocket 3.8 20:22:38 10° NNW 20:27:10 62° WNW 20:27:10 62° WNW
Nadezhda 3 Rocket 3.9 20:28:23 73° E 20:28:23 73° E 20:34:40 10° NNE
Cosmos 1190 Rocket 4.4 20:28:37 60° WNW 20:28:54 60° WNW 20:34:10 10° NNE
ASTEX 1 3.9 20:30:29 58° WNW 20:30:29 58° WNW 20:34:52 10° N
Cosmos 1818 3.7 20:31:11 68° NNE 20:31:11 68° NNE 20:36:03 10° NE
Mayak 0.0 20:27:28 10° N 20:30:20 40° NNW 20:30:20 40° NNW
Cosmos 1535 Rocket 4.4 20:28:13 10° N 20:34:22 77° ENE 20:34:22 77° ENE
NOSS 3-3 (A) 4.4 20:32:45 10° WSW 20:38:56 64° NNW 20:46:04 10° NE
NOSS 3-3 (C) 4.4 20:32:51 10° WSW 20:39:03 64° NNW 20:46:10 10° NE
Thor Agena Rocket 3.8 20:37:37 10° NNE 20:42:05 63° NNW 20:42:05 63° NNW
Cosmos 1697 Rocket 2.8 20:39:03 10° NNW 20:44:19 75° N 20:44:19 75° N
SL-16 R/B 3.8 20:40:26 10° NNW 20:45:25 30° NNE 20:47:46 22° ENE
Terra 4.0 20:49:37 17° W 20:49:45 17° W 20:52:48 10° NW
USA 234 3.2 20:45:53 10° E 20:52:27 81° N 20:59:00 10° W
Cosmos 676 Rocket 4.5 20:55:52 58° NW 20:55:52 58° NW 21:00:51 10° NNE
Cosmos 841 Rocket 4.0 20:51:22 10° NNW 20:55:36 55° NW 20:55:36 55° NW
Cosmos 1140 Rocket 4.3 20:56:44 44° WNW 20:57:09 45° NW 21:02:09 10° NNE
ATLAS 2AS CENTAUR R/B 4.3 20:52:03 10° WNW 20:57:18 21° WSW 20:57:42 21° WSW
Cosmos 2360 4.3 20:52:45 10° NNW 20:58:00 72° N 20:58:00 72° N
Nimbus 7 Rocket 4.4 20:52:52 10° NNE 20:58:13 71° NE 20:58:13 71° NE
Cosmos 2322 Rocket 3.7 20:55:31 10° NNW 21:00:33 31° NE 21:02:50 23° ENE
Cosmos 2360 Rocket 4.2 20:56:57 10° NNW 21:01:30 24° NNE 21:06:02 10° E
Cosmos 1821 Rocket 4.4 20:55:54 10° NNW 21:01:58 51° W 21:02:13 51° W
Cosmos 540 Rocket 4.1 20:58:47 10° NNW 21:02:43 51° NW 21:02:43 51° NW
Cosmos 2221 4.3 21:06:29 27° NE 21:06:29 27° NE 21:08:45 10° NNE
Cosmos 1980 Rocket 2.4 21:04:04 10° NNW 21:09:09 68° N 21:09:09 68° N
RESURS DK-1 4.4 21:06:22 10° NW 21:08:08 24° NW 21:08:08 24° NW
Cosmos 2278 3.9 21:12:30 10° NW 21:17:17 64° NW 21:17:17 64° NW
Cosmos 1605 Rocket 3.9 21:14:18 10° NNW 21:20:05 76° WNW 21:20:05 76° WNW
SL-24 R/B - RUBIN 2 4.4 21:23:26 76° NW 21:23:31 76° NW 21:30:04 10° NE
Cosmos 1934 Rocket 4.3 21:17:26 10° NNW 21:23:29 55° W 21:23:29 55° W
COSMOS 2406 3.7 21:25:42 52° ENE 21:25:42 52° ENE 21:30:06 10° NE
Cosmos 2173 Rocket 4.3 21:19:56 10° N 21:25:56 53° ENE 21:26:04 53° ENE
Cosmos 2082 Rocket 3.5 21:33:30 30° ENE 21:33:30 30° ENE 21:37:03 10° NE
ATLAS CENTAUR R/B 3.8 21:28:19 10° NW 21:29:15 16° NW 21:29:15 16° NW
SL-16 R/B 3.7 21:36:32 30° E 21:38:33 37° NE 21:44:12 10° N
SME Rocket 4.2 21:35:19 10° NNE 21:39:45 50° NE 21:39:45 50° NE
Cosmos 1339 Rocket 4.4 21:42:26 85° NW 21:42:26 85° NW 21:48:48 10° NNE
ATLAS 5 CENTAUR R/B 2.7 21:57:42 46° NNE 21:57:42 46° NNE 22:01:42 10° NE
Cosmos 1833 Rocket 3.0 22:03:29 62° NE 22:03:29 62° NE 22:08:14 10° NE
Cosmos 2219 Rocket 4.2 22:01:36 10° NNW 22:06:15 25° NNE 22:10:52 10° E
Mayak 1.5 22:04:49 10° NNW 22:06:21 12° NW 22:06:55 12° WNW
CZ-4C R/B 2.8 22:00:04 10° NW 22:06:33 68° WSW 22:06:33 68° WSW
CZ-4 R/B 4.5 22:07:23 10° NNE 22:11:07 54° NNE 22:11:07 54° NNE
CZ-2D R/B 3.8 22:08:16 10° NE 22:12:40 24° E 22:12:56 24° E
Cosmos 2344 4.3 22:08:23 10° NW 22:17:25 61° SW 22:20:04 51° S
Resurs 1-4 Rocket 3.6 22:13:19 10° NE 22:17:42 25° E 22:17:48 25° E
ADEOS II 4.5 22:21:09 10° NE 22:23:27 13° E 22:25:13 11° ESE
MOS 1-B Rocket 4.1 22:17:59 10° NNE 22:23:37 61° WNW 22:23:48 61° WNW
Meteor 2-2 Rocket 4.5 22:27:54 60° WNW 22:27:54 60° WNW 22:33:17 10° N
Cosmos 1697 Rocket 4.5 22:23:41 10° NW 22:26:03 20° WNW 22:26:03 20° WNW
Helios 1B rocket 4.0 22:25:45 10° N 22:28:16 34° N 22:28:16 34° N
SL-16 R/B 2.3 22:24:32 10° NW 22:29:37 71° NNW 22:29:37 71° NNW
Cosmos 1802 Rocket 3.9 22:24:03 10° NNW 22:30:13 76° W 22:30:13 76° W
Cosmos 2333 Rocket 3.8 22:25:32 10° NNW 22:30:36 32° NE 22:35:38 10° E
SL-19 R/B 4.3 22:32:59 89° NNW 22:32:59 89° NNW 22:38:43 10° NNW
Cosmos 1727 Rocket 4.1 22:33:51 61° W 22:34:01 61° WNW 22:40:18 10° N
UNK 4.4 22:35:58 54° NNE 22:35:58 54° NNE 22:39:54 10° N
USA 234 3.1 22:28:58 10° ESE 22:35:32 84° SSW 22:42:07 10° WNW
Cosmos 773 Rocket 4.3 22:32:16 10° NNW 22:36:44 65° N 22:36:44 65° N
Cosmos 2221 4.3 22:43:19 25° NW 22:43:19 25° NW 22:46:07 10° N
Cosmos 1864 Rocket 4.3 22:36:46 10° NNW 22:43:06 85° W 22:43:22 82° SSW
ERS-2 4.2 22:45:00 26° NE 22:45:00 26° NE 22:47:30 10° N
Cosmos 2322 Rocket 2.2 22:39:34 10° NW 22:44:37 71° NW 22:44:37 71° NW
NOSS 2-1 (E) 4.3 22:41:24 10° NW 22:53:15 - SE 22:45:08 60° NW
Cosmos 1725 Rocket 3.8 22:40:04 10° NNW 22:46:26 82° W 22:46:41 80° SW
Cosmos 2360 Rocket 2.5 22:40:59 10° NNW 22:46:36 63° NE 22:47:51 50° ESE
Cosmos 2100 Rocket 4.4 22:41:19 10° NNW 22:46:49 48° W 22:46:49 48° W
Cosmos 1459 Rocket 4.4 22:43:56 10° NNW 22:49:51 50° W 22:49:51 50° W
Cosmos 2233 Rocket 4.0 22:44:05 10° N 22:50:27 77° ENE 22:51:21 65° SE
Cosmos 1980 Rocket 3.9 22:48:37 10° NW 22:50:54 20° WNW 22:50:54 20° WNW
Cosmos 2016 Rocket 4.0 22:47:08 10° NNW 22:53:28 64° W 22:53:29 64° W
Cosmos 2237 Rocket 4.3 22:55:05 10° NNW 22:59:45 25° NNE 23:04:27 10° E
Cosmos 1354 Rocket 4.1 23:00:18 70° E 23:00:18 70° E 23:05:16 10° NNE
Cosmos 2123 Rocket 3.8 22:59:30 75° SSE 23:00:02 84° E 23:06:15 10° NNE
SL-08 R/B 4.4 22:55:47 10° NNW 23:01:51 65° W 23:01:51 65° W
MOZ.5/SAFIR/RUBIN 5/SL-8 4.4 23:05:42 49° NW 23:05:42 49° NW 23:09:21 10° NNW
Cosmos 1241 Rocket 4.3 22:58:35 10° NW 23:04:52 83° SW 23:05:42 68° SSE
Cosmos 1606 4.1 23:08:52 37° NNE 23:08:52 37° NNE 23:11:19 10° NNE
Cosmos 968 Rocket 3.5 23:08:31 76° NNW 23:08:31 76° NNW 23:13:35 10° NNE
COSMOS 2406 4.3 23:07:44 32° WNW 23:09:10 36° NW 23:14:28 10° NNE
H-2A R/B 3.7 23:09:02 25° E 23:10:28 31° ENE 23:14:11 10° N
AQUA 4.5 23:11:05 10° NNE 23:15:42 46° E 23:15:52 46° ESE
Cosmos 2082 Rocket 2.4 23:15:19 56° WNW 23:15:50 59° NW 23:21:28 10° NNE
IRS-1D 4.4 23:14:12 10° NNE 23:18:50 38° E 23:19:40 35° ESE
Cosmos 923 Rocket 4.3 23:15:56 10° NNW 23:21:11 64° ENE 23:23:05 38° ESE
Cosmos 1503 Rocket 3.9 23:21:21 77° WNW 23:21:22 77° WNW 23:26:39 10° NNE
SL-16 R/B 2.5 23:21:37 61° WSW 23:21:56 62° WSW 23:28:10 10° NNW
Cosmos 1315 Rocket 4.2 23:23:39 34° NNW 23:23:39 34° NNW 23:26:26 10° N
Cosmos 2237 4.0 23:17:55 10° NW 23:23:40 81° WSW 23:24:04 75° S
Gblst 52 Del rocket 4.4 23:26:17 60° S 23:26:17 60° S 23:31:56 10° ESE
NPP 3.7 23:23:39 10° NNE 23:29:04 70° ESE 23:29:46 62° SSE
Cosmos 1500 4.3 23:25:40 10° N 23:29:05 40° ENE 23:29:05 40° ENE
Meteor 1-20 Rocket 4.4 23:24:15 10° NNW 23:29:49 55° W 23:29:49 55° W
Cosmos 1607 3.8 23:31:23 65° SSW 23:32:22 82° SE 23:38:39 10° NE
COSMOS 2428 3.3 23:28:18 10° NNW 23:33:56 55° NE 23:39:33 10° SE
Cosmos 1869 Rocket 3.7 23:31:38 10° NNW 23:35:36 71° N 23:35:36 71° N
Meteor 2-20 4.4 23:38:28 60° SSW 23:39:37 79° WNW 23:45:51 10° N
USA 267 3.7 23:34:34 10° ENE 23:40:46 43° SE 23:42:05 39° S
Cosmos 1538 Rocket 4.5 23:36:15 10° NW 23:40:25 46° WNW 23:40:25 46° WNW
Cosmos 1680 Rocket 3.7 23:36:32 10° NNW 23:41:47 70° ENE 23:44:58 24° SE
ATLAS 5 CENTAUR R/B 3.3 23:39:11 19° WNW 23:42:03 36° N 23:47:10 10° ENE
Cosmos 2322 3.7 23:36:37 10° NW 23:42:23 85° NE 23:46:31 20° SE
CZ-4B R/B 3.2 23:38:24 10° NNE 23:43:20 88° WNW 23:43:37 80° SSW
Meteor 1-11 Rocket 4.3 23:38:45 10° N 23:44:34 60° ENE 23:49:14 17° SSE
Cosmos 2228 Rocket 3.0 23:44:57 88° NW 23:44:57 88° NW 23:49:34 10° NNE
Cosmos 2333 4.1 23:40:35 10° NW 23:46:14 85° NE 23:50:55 15° SE
Cosmos 158 Rocket 4.4 23:41:23 10° NNW 23:46:44 62° ENE 23:51:54 10° SE
Cosmos 1833 Rocket 3.9 23:45:09 27° WNW 23:47:04 33° NW 23:52:10 10° NNE
Cosmos 2034 Rocket 4.4 23:42:31 10° N 23:48:53 65° ENE 23:53:55 17° SSE
Cosmos 2219 Rocket 2.4 23:45:34 10° NNW 23:51:12 70° NE 23:56:48 10° SE
Cosmos 1151 Rocket 4.1 23:51:46 34° NW 23:51:46 34° NW 23:55:16 10° N
CZ-2D R/B 2.1 23:47:49 10° NNE 23:53:17 75° WNW 23:54:16 59° SW
Cosmos 1515 Rocket 4.1 23:53:47 46° NW 23:53:47 46° NW 23:57:34 10° N
Cosmos 1782 3.0 23:56:06 66° NNW 23:56:06 66° NNW 23:59:37 10° N
